Voltar ao catálogo

CZ-4C DEB

AtivoLEO
NORAD 43404·DEBRIS·🇨🇳 China

Lançado Nov 25, 2012 de Jiuquan Satellite Launch Center

Loading…

Próximas Passagens (próximas 24 horas)

TLE

AtualizadoSource: Space-Track

Época: Sep 14, 2026, 05:40 UTC

1 43404U 12066G   26257.23665696 -.00000047  00000-0  10744-3 0  9996
2 43404  63.3569 135.4420 0176886 347.1823  12.4709 12.93184040604894

Acompanhe CZ-4C DEB em tempo real com AllMySat

Download on the App Store